Wetbulb
78.68 76.51 76.50 76.54 75.78 74.00 71.31 71.63 74.76 73.67 73.89 73.97 74.25 73.34 73.34 72.27 70.90 71.32 70.19 69.82 69.61 68.35
78.17 77.73 76.89 76.96 75.75 72.85 72.96 74.04 74.69 73.91 73.72 74.54 74.02 73.01 72.47 71.51 71.40 71.34 70.72 69.35 69.14 68.01
77.26 78.22 77.56 76.06 74.59 73.32 74.71 74.99 75.26 74.23 74.49 74.50 74.45 73.54 72.76 71.48 71.62 70.72 69.15 67.57 68.20 68.15
77.16 77.81 76.86 75.29 73.92 74.80 75.47 75.86 75.29 75.38 74.93 73.69 73.26 72.96 72.32 71.57 70.34 69.19 68.01 68.17 67.92 67.37
77.55 77.12 76.97 75.06 73.43 74.90 75.39 75.57 75.84 74.95 73.42 72.59 71.85 71.43 70.57 69.43 68.36 67.21 66.41 66.38 66.53 65.64
75.80 74.71 74.57 73.58 74.40 75.07 75.64 74.89 73.72 73.23 72.55 71.42 70.65 69.63 68.38 67.26 66.40 65.67 64.55 63.54 63.75 62.32
72.70 73.24 72.96 73.08 74.41 74.91 74.64 72.79 72.35 71.66 70.35 68.80 67.08 65.93 65.34 64.48 63.62 62.46 61.53 61.57 62.10 61.16
69.26 71.81 71.72 73.65 74.21 71.23 71.25 71.23 69.96 68.01 66.48 65.66 64.66 61.24 62.37 61.01 61.01 61.31 61.26 60.77 60.81 59.11
68.80 69.84 71.63 72.58 70.39 69.94 68.87 68.09 67.01 65.58 65.13 63.10 60.31 55.50 56.20 59.70 60.73 60.74 60.22 59.47 59.41 59.55
70.24 69.24 71.24 69.05 68.43 67.99 66.69 65.85 64.64 64.04 63.22 61.12 59.15 55.23 55.49 57.63 59.53 58.99 59.09 59.07 58.71 57.62
70.62 70.62 68.38 67.61 67.72 67.46 66.05 64.46 62.93 61.85 61.49 59.83 56.83 54.38 54.82 58.15 59.28 59.20 59.46 59.35 58.87 58.25
71.75 69.50 68.63 67.55 67.47 66.44 64.91 63.05 61.66 61.35 60.84 59.12 57.12 52.92 53.24 57.44 59.03 58.88 58.85 58.95 58.00 58.66
71.76 70.20 68.87 68.35 67.35 65.79 64.71 62.08 60.41 60.20 60.44 57.49 57.51 52.07 52.31 56.17 59.00 58.82 58.78 60.11 60.33 52.39
71.47 70.54 69.25 67.54 66.48 65.12 63.22 61.17 59.87 59.20 59.21 59.81 58.94 56.38 51.23 52.20 59.81 57.85 57.93 57.76 58.33 58.98
MSLP
1012.41 1012.56 1012.65 1013.09 1013.25 1013.43 1013.75 1014.34 1015.10 1015.36 1015.37 1015.52 1015.56 1015.61 1015.64 1015.34 1015.49 1015.63 1015.26 1015.15 1014.88 1014.02
1012.15 1012.40 1012.44 1013.27 1013.73 1013.94 1014.30 1014.62 1015.18 1015.34 1015.47 1015.56 1015.66 1015.84 1015.91 1015.52 1015.75 1015.65 1015.33 1015.01 1014.97 1014.35
1012.21 1012.51 1013.17 1013.58 1013.92 1014.40 1014.75 1014.96 1015.31 1015.38 1015.50 1015.57 1015.70 1015.94 1016.05 1015.56 1015.78 1015.88 1015.60 1015.30 1015.48 1015.17
1011.91 1012.65 1012.98 1013.41 1013.95 1014.45 1014.91 1015.21 1015.51 1015.61 1015.61 1015.73 1015.78 1016.00 1016.11 1016.18 1016.24 1016.17 1016.16 1015.91 1015.65 1015.64
1011.96 1012.58 1013.13 1013.34 1013.70 1014.28 1014.82 1015.30 1015.51 1015.88 1016.01 1016.10 1016.18 1016.34 1016.36 1016.42 1016.55 1016.68 1016.56 1016.39 1016.06 1016.16
1012.49 1012.42 1012.95 1013.52 1013.83 1014.20 1015.03 1015.43 1015.83 1016.04 1016.26 1016.53 1016.72 1016.79 1016.97 1017.11 1017.09 1016.96 1017.13 1017.15 1016.74 1016.84
1012.33 1012.90 1012.78 1013.60 1014.15 1014.58 1015.33 1016.00 1016.28 1016.57 1016.83 1017.06 1017.22 1017.38 1017.38 1017.50 1017.58 1017.35 1017.32 1017.18 1016.99 1017.00
1011.91 1013.20 1012.76 1014.32 1014.79 1015.70 1016.08 1016.49 1016.90 1017.17 1017.36 1017.47 1017.47 1017.57 1017.56 1017.70 1017.63 1017.52 1017.63 1017.82 1017.49 1017.62
1012.23 1013.39 1012.56 1014.99 1015.55 1016.18 1016.76 1017.08 1017.11 1017.36 1017.48 1017.57 1017.79 1018.71 1018.32 1017.82 1018.03 1018.06 1017.88 1017.79 1017.89 1017.81
1012.27 1013.08 1013.88 1015.14 1015.78 1016.60 1016.86 1017.40 1017.35 1017.78 1018.01 1018.29 1018.87 1019.12 1019.10 1018.88 1018.61 1018.52 1018.51 1018.44 1018.23 1017.71
1012.14 1012.99 1014.21 1015.34 1016.16 1016.68 1016.96 1017.43 1017.78 1018.15 1018.68 1019.04 1019.40 1019.40 1019.29 1019.05 1018.80 1018.84 1018.63 1018.63 1018.44 1018.22
1011.98 1013.20 1014.34 1015.26 1015.82 1016.37 1017.07 1017.67 1017.74 1018.07 1018.48 1018.96 1019.49 1019.58 1019.47 1019.06 1018.76 1018.94 1018.86 1018.98 1018.94 1018.52
1012.24 1013.24 1014.01 1014.78 1015.71 1016.34 1016.86 1017.20 1017.36 1017.93 1018.31 1018.97 1019.52 1019.61 1019.76 1019.15 1018.32 1018.33 1018.00 1018.46 1018.81 1019.12
1012.25 1013.31 1013.93 1014.74 1015.64 1016.10 1016.47 1016.89 1017.46 1017.63 1018.19 1018.60 1019.16 1019.75 1020.15 1019.73 1018.81 1018.29 1018.12 1017.85 1017.72 1017.88
Wind_Speed
10 7 6 6 5 4 4 4 5 4 3 3 2 1 2 2 6 5 6 7 7 8
11 7 6 8 6 5 4 6 5 3 3 1 1 2 3 4 5 6 6 7 8 8
10 9 9 8 6 5 5 4 5 4 2 1 1 2 4 4 6 6 6 7 7 8
10 10 11 10 9 7 6 4 3 2 1 4 5 4 4 5 5 6 6 6 7 8
9 9 9 9 10 8 6 4 1 1 3 3 4 4 5 6 6 6 7 7 8 10
7 9 9 9 8 7 5 4 4 4 3 4 5 5 5 5 5 6 7 8 7 6
11 8 7 8 7 7 6 6 5 5 5 5 5 5 5 5 5 5 6 6 6 8
10 8 8 5 6 8 7 6 6 6 5 5 3 5 4 4 5 5 6 7 6 9
14 9 13 8 9 9 8 7 7 6 5 4 5 6 6 4 6 6 7 7 7 7
14 14 11 10 10 9 9 7 7 6 5 6 8 8 7 5 7 7 8 8 7 8
14 11 13 12 11 10 8 7 7 6 6 7 8 8 3 1 7 7 8 7 7 7
13 12 12 11 12 10 9 8 8 8 9 9 8 4 4 7 5 6 6 5 6 6
12 13 13 12 11 10 10 9 8 9 9 8 7 4 4 8 3 3 2 2 1 2
11 11 11 12 10 11 9 10 9 10 9 8 7 6 1 7 3 5 4 4 4 4
Wind_Direction
186 187 186 190 140 170 156 143 134 111 70 44 104 88 18 21 353 16 354 355 349 317
175 191 156 148 163 150 153 129 136 131 111 61 158 315 324 35 350 340 353 335 357 327
174 171 158 153 176 165 140 132 153 162 181 327 344 302 310 325 51 350 1 356 3 352
173 171 165 162 163 169 170 157 170 188 321 346 344 1 336 336 19 353 2 5 13 9
155 166 175 171 163 161 168 176 146 48 43 46 26 15 358 353 12 8 5 7 2 9
148 153 172 170 164 158 159 157 94 119 94 54 34 22 36 26 22 24 13 1 360 23
150 154 156 168 173 162 122 125 130 94 81 76 64 47 32 30 19 25 38 31 32 30
129 142 100 164 147 109 124 120 115 103 93 81 70 37 27 55 61 55 50 39 21 52
131 153 114 164 127 122 128 135 125 112 111 102 73 57 41 48 79 69 62 59 50 63
147 148 150 134 127 144 144 135 115 109 97 91 84 61 48 18 71 74 70 56 43 42
149 138 127 136 147 146 135 132 120 101 96 96 83 77 79 159 96 87 76 65 61 57
143 136 143 151 150 138 135 134 122 125 127 114 103 71 304 279 115 98 81 77 48 30
146 146 149 145 144 145 149 142 134 133 123 111 127 104 315 324 120 76 79 149 50 161
148 146 134 139 153 150 147 131 137 134 142 145 150 145 292 347 341 4 332 333 344 357